Time,TemperatureF,DewpointF,PressureIn,WindDirection,WindDirectionDegrees,WindSpeedMPH,WindSpeedGustMPH,Humidity,HourlyPrecipIn,Conditions,Clouds,dailyrainin,SoftwareType,DateUTC
2013-01-09 00:01:00,23.2,15.8,30.21,ESE,112,0.0,0.0,73,0.00,,,0.00,WUHU21623XXSP,2013-01-09 08:01:00,
2013-01-09 00:07:00,23.2,15.8,30.21,NE,45,0.0,0.0,73,0.00,,,0.00,WUHU21623XXSP,2013-01-09 08:07:00,
2013-01-09 00:13:00,23.2,15.8,30.21,NE,45,0.0,0.0,73,0.00,,,0.00,WUHU21623XXSP,2013-01-09 08:13:00,
2013-01-09 00:22:00,23.4,16.3,30.20,NW,315,0.0,0.0,74,0.00,,,0.00,WUHU21623XXSP,2013-01-09 08:22:00,
2013-01-09 00:27:00,23.4,16.3,30.20,NNW,337,0.0,0.0,74,0.00,,,0.00,WUHU21623XXSP,2013-01-09 08:27:00,
2013-01-09 00:43:00,23.4,16.3,30.20,WNW,292,0.0,0.0,74,0.00,,,0.00,WUHU21623XXSP,2013-01-09 08:43:00,
2013-01-09 00:48:00,23.4,16.3,30.20,WNW,292,0.0,0.0,74,0.00,,,0.00,WUHU21623XXSP,2013-01-09 08:48:00,
2013-01-09 00:58:00,23.4,16.3,30.20,WNW,292,0.0,0.0,74,0.00,,,0.00,WUHU21623XXSP,2013-01-09 08:58:00,
2013-01-09 01:03:00,23.4,16.3,30.20,WNW,292,0.0,0.0,74,0.00,,,0.00,WUHU21623XXSP,2013-01-09 09:03:00,
2013-01-09 01:08:00,23.2,16.1,30.21,NNE,22,0.0,0.0,74,0.00,,,0.00,WUHU21623XXSP,2013-01-09 09:08:00,
2013-01-09 01:13:00,23.2,16.1,30.20,ESE,112,0.0,0.0,74,0.00,,,0.00,WUHU21623XXSP,2013-01-09 09:13:00,
2013-01-09 01:20:00,23.2,16.1,30.20,West,270,0.0,0.0,74,0.00,,,0.00,WUHU21623XXSP,2013-01-09 09:20:00,
2013-01-09 01:25:00,23.2,16.1,30.20,NNW,337,0.0,0.0,74,0.00,,,0.00,WUHU21623XXSP,2013-01-09 09:25:00,
2013-01-09 01:32:00,23.2,16.4,30.19,WNW,292,0.0,0.0,75,0.00,,,0.00,WUHU21623XXSP,2013-01-09 09:32:00,
2013-01-09 01:39:00,23.2,16.4,30.19,West,270,0.0,0.0,75,0.00,,,0.00,WUHU21623XXSP,2013-01-09 09:39:00,
2013-01-09 01:45:00,23.0,16.3,30.19,SE,135,0.0,0.0,75,0.00,,,0.00,WUHU21623XXSP,2013-01-09 09:45:00,
2013-01-09 01:56:00,22.8,16.1,30.20,East,90,0.0,0.0,75,0.00,,,0.00,WUHU21623XXSP,2013-01-09 09:56:00,
2013-01-09 02:01:00,22.8,16.1,30.20,East,90,0.0,0.0,75,0.00,,,0.00,WUHU21623XXSP,2013-01-09 10:01:00,
2013-01-09 02:37:00,22.3,15.5,30.19,WNW,292,0.0,0.0,75,0.00,,,0.00,WUHU21623XXSP,2013-01-09 10:37:00,
2013-01-09 02:54:00,21.9,15.5,30.18,NW,315,0.0,0.0,76,0.00,,,0.00,WUHU21623XXSP,2013-01-09 10:54:00,
2013-01-09 02:59:00,21.9,15.5,30.18,NW,315,0.0,0.0,76,0.00,,,0.00,WUHU21623XXSP,2013-01-09 10:59:00,
2013-01-09 03:04:00,21.7,15.3,30.18,ESE,112,0.0,0.0,76,0.00,,,0.00,WUHU21623XXSP,2013-01-09 11:04:00,
2013-01-09 03:09:00,21.6,15.1,30.18,North,0,0.0,0.0,76,0.00,,,0.00,WUHU21623XXSP,2013-01-09 11:09:00,
2013-01-09 03:22:00,21.4,14.9,30.16,WSW,247,0.0,0.0,76,0.00,,,0.00,WUHU21623XXSP,2013-01-09 11:22:00,
2013-01-09 03:28:00,21.0,14.6,30.17,East,90,0.0,0.0,76,0.00,,,0.00,WUHU21623XXSP,2013-01-09 11:28:00,
2013-01-09 03:33:00,21.0,14.6,30.17,South,180,0.0,0.0,76,0.00,,,0.00,WUHU21623XXSP,2013-01-09 11:33:00,
2013-01-09 03:38:00,20.8,14.4,30.16,SSE,157,0.0,0.0,76,0.00,,,0.00,WUHU21623XXSP,2013-01-09 11:38:00,
2013-01-09 03:45:00,20.8,14.4,30.17,ENE,67,0.0,0.0,76,0.00,,,0.00,WUHU21623XXSP,2013-01-09 11:45:00,
2013-01-09 04:05:00,20.3,13.9,30.14,SSW,202,0.0,0.0,76,0.00,,,0.00,WUHU21623XXSP,2013-01-09 12:05:00,
2013-01-09 04:10:00,20.1,14.0,30.15,South,180,0.0,0.0,77,0.00,,,0.00,WUHU21623XXSP,2013-01-09 12:10:00,
2013-01-09 04:15:00,20.1,14.0,30.14,South,180,0.0,0.0,77,0.00,,,0.00,WUHU21623XXSP,2013-01-09 12:15:00,
2013-01-09 04:30:00,19.9,13.8,30.13,South,180,0.0,0.0,77,0.00,,,0.00,WUHU21623XXSP,2013-01-09 12:30:00,
2013-01-09 04:45:00,19.9,13.8,30.13,NW,315,0.0,0.0,77,0.00,,,0.00,WUHU21623XXSP,2013-01-09 12:45:00,
2013-01-09 04:54:00,19.9,14.1,30.12,NNE,22,0.0,0.0,78,0.00,,,0.00,WUHU21623XXSP,2013-01-09 12:54:00,
2013-01-09 04:59:00,19.9,14.1,30.12,SSE,157,0.0,0.0,78,0.00,,,0.00,WUHU21623XXSP,2013-01-09 12:59:00,
2013-01-09 05:04:00,19.9,14.1,30.12,SSE,157,0.0,0.0,78,0.00,,,0.00,WUHU21623XXSP,2013-01-09 13:04:00,
2013-01-09 05:17:00,19.9,14.1,30.12,NE,45,0.0,0.0,78,0.00,,,0.00,WUHU21623XXSP,2013-01-09 13:17:00,
2013-01-09 05:28:00,19.9,14.1,30.12,West,270,0.0,0.0,78,0.00,,,0.00,WUHU21623XXSP,2013-01-09 13:28:00,
2013-01-09 05:37:00,19.9,14.1,30.12,NW,315,3.6,3.6,78,0.00,,,0.00,WUHU21623XXSP,2013-01-09 13:37:00,
2013-01-09 05:43:00,19.8,13.9,30.10,NNE,22,0.0,3.6,78,0.00,,,0.00,WUHU21623XXSP,2013-01-09 13:43:00,
2013-01-09 05:49:00,19.4,13.6,30.10,WNW,292,0.0,0.0,78,0.00,,,0.00,WUHU21623XXSP,2013-01-09 13:49:00,
2013-01-09 05:56:00,19.2,13.4,30.11,WSW,247,0.0,0.0,78,0.00,,,0.00,WUHU21623XXSP,2013-01-09 13:56:00,
2013-01-09 06:01:00,19.2,13.4,30.10,WSW,247,0.0,0.0,78,0.00,,,0.00,WUHU21623XXSP,2013-01-09 14:01:00,
2013-01-09 06:09:00,19.0,13.2,30.11,SSW,202,0.0,0.0,78,0.00,,,0.00,WUHU21623XXSP,2013-01-09 14:09:00,
2013-01-09 06:14:00,18.7,12.8,30.10,NNE,22,0.0,0.0,78,0.00,,,0.00,WUHU21623XXSP,2013-01-09 14:14:00,
2013-01-09 06:22:00,18.5,12.7,30.09,NNE,22,0.0,0.0,78,0.00,,,0.00,WUHU21623XXSP,2013-01-09 14:22:00,
2013-01-09 06:28:00,18.3,12.8,30.10,NNE,22,0.0,0.0,79,0.00,,,0.00,WUHU21623XXSP,2013-01-09 14:28:00,
2013-01-09 06:33:00,18.3,12.8,30.09,East,90,0.0,0.0,79,0.00,,,0.00,WUHU21623XXSP,2013-01-09 14:33:00,
2013-01-09 06:38:00,18.3,12.8,30.10,South,180,1.3,1.3,79,0.00,,,0.00,WUHU21623XXSP,2013-01-09 14:38:00,
2013-01-09 06:43:00,18.5,12.8,30.09,NNE,22,0.0,1.3,79,0.00,,,0.00,WUHU21623XXSP,2013-01-09 14:43:00,
2013-01-09 06:52:00,18.5,13.0,30.09,SE,135,0.0,0.0,79,0.00,,,0.00,WUHU21623XXSP,2013-01-09 14:52:00,
2013-01-09 06:57:00,18.5,13.0,30.08,WNW,292,0.0,0.0,79,0.00,,,0.00,WUHU21623XXSP,2013-01-09 14:57:00,
2013-01-09 07:02:00,18.5,13.0,30.08,NE,45,0.0,0.0,79,0.00,,,0.00,WUHU21623XXSP,2013-01-09 15:02:00,
2013-01-09 07:07:00,18.7,13.2,30.08,NNE,22,1.1,2.5,80,0.00,,,0.00,WUHU21623XXSP,2013-01-09 15:07:00,
2013-01-09 07:12:00,18.7,13.5,30.07,NE,45,0.7,2.5,80,0.00,,,0.00,WUHU21623XXSP,2013-01-09 15:12:00,
2013-01-09 07:17:00,18.7,13.6,30.08,NE,45,0.7,0.7,80,0.00,,,0.00,WUHU21623XXSP,2013-01-09 15:17:00,
2013-01-09 07:22:00,18.9,13.6,30.07,NW,315,0.0,0.7,80,0.00,,,0.00,WUHU21623XXSP,2013-01-09 15:22:00,
2013-01-09 07:30:00,18.9,13.6,30.07,WSW,247,0.0,0.0,80,0.00,,,0.00,WUHU21623XXSP,2013-01-09 15:30:00,
2013-01-09 07:35:00,18.9,13.6,30.08,NNW,337,0.0,0.0,80,0.00,,,0.00,WUHU21623XXSP,2013-01-09 15:35:00,
2013-01-09 07:41:00,18.9,13.6,30.08,North,0,0.0,0.0,80,0.00,,,0.00,WUHU21623XXSP,2013-01-09 15:41:00,
2013-01-09 07:46:00,18.7,13.5,30.07,WNW,292,0.0,0.0,80,0.00,,,0.00,WUHU21623XXSP,2013-01-09 15:46:00,
2013-01-09 07:51:00,18.7,13.5,30.07,North,0,0.0,0.0,80,0.00,,,0.00,WUHU21623XXSP,2013-01-09 15:51:00,
2013-01-09 07:56:00,18.7,13.5,30.08,NNW,337,0.0,0.0,80,0.00,,,0.00,WUHU21623XXSP,2013-01-09 15:56:00,
2013-01-09 08:01:00,18.7,13.5,30.07,North,0,0.0,0.0,80,0.00,,,0.00,WUHU21623XXSP,2013-01-09 16:01:00,
2013-01-09 08:06:00,18.5,13.3,30.06,SSE,157,0.0,0.0,80,0.00,,,0.00,WUHU21623XXSP,2013-01-09 16:06:00,
2013-01-09 08:11:00,18.5,13.3,30.08,West,270,0.0,0.0,80,0.00,,,0.00,WUHU21623XXSP,2013-01-09 16:11:00,
2013-01-09 08:19:00,18.3,13.1,30.06,East,90,0.0,0.0,80,0.00,,,0.00,WUHU21623XXSP,2013-01-09 16:19:00,
2013-01-09 08:24:00,18.3,13.1,30.06,North,0,0.0,0.0,80,0.00,,,0.00,WUHU21623XXSP,2013-01-09 16:24:00,
2013-01-09 08:39:00,18.7,13.5,30.06,North,0,0.0,0.0,80,0.00,,,0.00,WUHU21623XXSP,2013-01-09 16:39:00,
2013-01-09 08:56:00,19.4,14.4,30.05,NE,45,0.0,0.0,81,0.00,,,0.00,WUHU21623XXSP,2013-01-09 16:56:00,
2013-01-09 09:11:00,20.7,16.0,30.05,ESE,112,0.0,0.0,82,0.00,,,0.00,WUHU21623XXSP,2013-01-09 17:11:00,
2013-01-09 09:19:00,21.6,16.9,30.04,NW,315,0.0,0.0,82,0.00,,,0.00,WUHU21623XXSP,2013-01-09 17:19:00,
2013-01-09 09:34:00,23.2,18.8,30.04,WNW,292,0.0,0.0,83,0.00,,,0.00,WUHU21623XXSP,2013-01-09 17:34:00,
2013-01-09 10:00:00,27.0,22.7,30.03,North,0,0.0,0.0,84,0.00,,,0.00,WUHU21623XXSP,2013-01-09 18:00:00,
2013-01-09 10:07:00,28.2,23.4,30.02,WNW,292,3.4,3.4,84,0.00,,,0.00,WUHU21623XXSP,2013-01-09 18:07:00,
2013-01-09 10:20:00,29.8,25.9,30.02,WNW,292,0.0,0.0,85,0.00,,,0.00,WUHU21623XXSP,2013-01-09 18:20:00,
2013-01-09 10:39:00,33.1,29.3,30.00,NW,315,0.0,0.0,86,0.00,,,0.00,WUHU21623XXSP,2013-01-09 18:39:00,
2013-01-09 10:41:00,33.1,29.3,30.00,NW,315,0.0,0.0,86,0.00,,,0.00,WUHU21623XXSP,2013-01-09 18:41:00,
2013-01-09 10:42:00,33.1,29.3,30.00,NW,315,0.0,0.0,86,0.00,,,0.00,WUHU21623XXSP,2013-01-09 18:42:00,
2013-01-09 10:45:00,34.2,30.3,30.01,West,270,0.0,0.0,86,0.00,,,0.00,WUHU21623XXSP,2013-01-09 18:45:00,
2013-01-09 10:48:00,34.2,30.3,30.01,West,270,0.0,0.0,86,0.00,,,0.00,WUHU21623XXSP,2013-01-09 18:48:00,
2013-01-09 10:58:00,36.3,32.2,29.99,ENE,67,0.0,0.0,85,0.00,,,0.00,WUHU21623XXSP,2013-01-09 18:58:00,
2013-01-09 11:19:00,41.9,37.1,29.97,WSW,247,0.0,0.0,83,0.00,,,0.00,WUHU21623XXSP,2013-01-09 19:19:00,
2013-01-09 11:39:00,48.9,40.6,29.96,ESE,112,3.1,3.1,73,0.00,,,0.00,WUHU21623XXSP,2013-01-09 19:39:00,
2013-01-09 11:44:00,50.2,40.8,29.95,SSE,157,4.7,4.7,70,0.00,,,0.00,WUHU21623XXSP,2013-01-09 19:44:00,
2013-01-09 11:56:00,52.7,40.4,29.95,South,180,5.8,5.8,63,0.00,,,0.00,WUHU21623XXSP,2013-01-09 19:56:00,
2013-01-09 12:03:00,53.8,39.8,29.95,SE,135,0.9,5.8,59,0.00,,,0.00,WUHU21623XXSP,2013-01-09 20:03:00,
2013-01-09 12:41:00,57.4,39.9,29.93,West,270,0.0,0.0,52,0.00,,,0.00,WUHU21623XXSP,2013-01-09 20:41:00,
2013-01-09 12:58:00,58.3,38.1,29.92,SE,135,0.0,0.0,47,0.00,,,0.00,WUHU21623XXSP,2013-01-09 20:58:00,
2013-01-09 13:23:00,58.3,37.5,29.91,SE,135,0.0,0.0,46,0.00,,,0.00,WUHU21623XXSP,2013-01-09 21:23:00,
2013-01-09 13:39:00,58.3,36.9,29.91,SSE,157,9.6,9.6,44,0.00,,,0.00,WUHU21623XXSP,2013-01-09 21:39:00,
2013-01-09 13:54:00,57.9,36.0,29.89,SSE,157,2.2,2.2,43,0.00,,,0.00,WUHU21623XXSP,2013-01-09 21:54:00,
2013-01-09 14:13:00,55.2,32.4,29.89,SE,135,6.3,6.3,42,0.00,,,0.00,WUHU21623XXSP,2013-01-09 22:13:00,
2013-01-09 14:25:00,53.4,30.8,29.89,ENE,67,9.2,9.2,42,0.00,,,0.00,WUHU21623XXSP,2013-01-09 22:25:00,
2013-01-09 14:36:00,52.3,30.4,29.89,East,90,11.0,11.0,43,0.00,,,0.00,WUHU21623XXSP,2013-01-09 22:36:00,
2013-01-09 14:45:00,51.8,30.5,29.88,South,180,8.1,11.0,44,0.00,,,0.00,WUHU21623XXSP,2013-01-09 22:45:00,
2013-01-09 14:55:00,50.7,29.5,29.88,SSE,157,11.9,11.9,44,0.00,,,0.00,WUHU21623XXSP,2013-01-09 22:55:00,
2013-01-09 15:15:00,50.0,29.6,29.88,ESE,112,5.1,5.1,45,0.00,,,0.00,WUHU21623XXSP,2013-01-09 23:15:00,
2013-01-09 15:32:00,49.3,29.2,29.87,SE,135,4.9,4.9,46,0.00,,,0.00,WUHU21623XXSP,2013-01-09 23:32:00,
2013-01-09 15:37:00,49.3,29.2,29.88,SSE,157,6.9,6.9,46,0.00,,,0.00,WUHU21623XXSP,2013-01-09 23:37:00,
2013-01-09 15:49:00,48.7,29.3,29.88,SE,135,4.3,4.3,48,0.00,,,0.00,WUHU21623XXSP,2013-01-09 23:49:00,
2013-01-09 15:54:00,48.7,29.8,29.88,SE,135,1.3,4.3,48,0.00,,,0.00,WUHU21623XXSP,2013-01-09 23:54:00,
2013-01-09 16:10:00,47.8,29.0,29.87,South,180,10.3,10.3,48,0.00,,,0.00,WUHU21623XXSP,2013-01-10 00:10:00,
2013-01-09 16:25:00,47.1,28.9,29.87,SSE,157,0.0,0.0,49,0.00,,,0.00,WUHU21623XXSP,2013-01-10 00:25:00,
2013-01-09 16:30:00,46.9,28.7,29.87,SE,135,4.5,4.5,49,0.00,,,0.00,WUHU21623XXSP,2013-01-10 00:30:00,
2013-01-09 16:36:00,46.8,29.1,29.87,East,90,4.7,4.7,50,0.00,,,0.00,WUHU21623XXSP,2013-01-10 00:36:00,
2013-01-09 16:41:00,46.6,28.9,29.87,ESE,112,7.2,7.2,50,0.00,,,0.00,WUHU21623XXSP,2013-01-10 00:41:00,
2013-01-09 16:47:00,46.2,28.6,29.86,SSE,157,9.8,9.8,50,0.00,,,0.00,WUHU21623XXSP,2013-01-10 00:47:00,
2013-01-09 16:57:00,46.0,28.9,29.87,SSW,202,16.1,16.1,51,0.00,,,0.00,WUHU21623XXSP,2013-01-10 00:57:00,
2013-01-09 17:02:00,45.9,28.7,29.86,SSE,157,7.6,16.1,51,0.00,,,0.00,WUHU21623XXSP,2013-01-10 01:02:00,
2013-01-09 17:08:00,45.7,28.6,29.86,South,180,19.7,19.7,51,0.00,,,0.00,WUHU21623XXSP,2013-01-10 01:08:00,
2013-01-09 17:15:00,45.5,28.4,29.86,SSW,202,0.0,0.0,51,0.00,,,0.00,WUHU21623XXSP,2013-01-10 01:15:00,
2013-01-09 17:25:00,45.3,28.7,29.85,SE,135,4.7,4.7,52,0.00,,,0.00,WUHU21623XXSP,2013-01-10 01:25:00,
2013-01-09 17:30:00,45.1,28.5,29.85,SSE,157,2.2,4.7,52,0.00,,,0.00,WUHU21623XXSP,2013-01-10 01:30:00,
2013-01-09 17:36:00,45.1,28.5,29.85,SSE,157,2.9,2.9,52,0.00,,,0.00,WUHU21623XXSP,2013-01-10 01:36:00,
2013-01-09 17:41:00,45.0,28.4,29.85,SSW,202,2.5,2.9,52,0.00,,,0.00,WUHU21623XXSP,2013-01-10 01:41:00,
2013-01-09 17:46:00,44.8,28.2,29.85,SE,135,3.4,3.4,52,0.00,,,0.00,WUHU21623XXSP,2013-01-10 01:46:00,
2013-01-09 17:51:00,44.4,28.3,29.85,SSE,157,3.6,3.6,53,0.00,,,0.00,WUHU21623XXSP,2013-01-10 01:51:00,
2013-01-09 17:57:00,44.2,28.1,29.85,SSE,157,5.1,5.1,53,0.00,,,0.00,WUHU21623XXSP,2013-01-10 01:57:00,
2013-01-09 18:02:00,44.1,28.1,29.84,South,180,13.2,13.2,53,0.00,,,0.00,WUHU21623XXSP,2013-01-10 02:02:00,
2013-01-09 18:07:00,43.9,27.8,29.84,South,180,6.0,13.2,53,0.00,,,0.00,WUHU21623XXSP,2013-01-10 02:07:00,
2013-01-09 18:12:00,43.7,28.1,29.84,SE,135,11.4,11.4,54,0.00,,,0.00,WUHU21623XXSP,2013-01-10 02:12:00,
2013-01-09 18:17:00,43.7,28.1,29.84,ESE,112,5.1,11.4,54,0.00,,,0.00,WUHU21623XXSP,2013-01-10 02:17:00,
2013-01-09 18:22:00,43.7,28.1,29.84,SE,135,18.3,18.3,54,0.00,,,0.00,WUHU21623XXSP,2013-01-10 02:22:00,
2013-01-09 18:29:00,43.7,28.1,29.84,SE,135,11.9,18.3,54,0.00,,,0.00,WUHU21623XXSP,2013-01-10 02:29:00,
2013-01-09 18:34:00,43.7,28.1,29.83,SSE,157,12.1,12.1,54,0.00,,,0.00,WUHU21623XXSP,2013-01-10 02:34:00,
2013-01-09 18:39:00,43.5,27.9,29.83,SE,135,11.2,12.1,54,0.00,,,0.00,WUHU21623XXSP,2013-01-10 02:39:00,
2013-01-09 18:45:00,43.5,28.4,29.84,East,90,3.4,11.2,55,0.00,,,0.00,WUHU21623XXSP,2013-01-10 02:45:00,
2013-01-09 18:50:00,43.5,28.4,29.84,SE,135,8.1,8.1,55,0.00,,,0.00,WUHU21623XXSP,2013-01-10 02:50:00,
2013-01-09 18:55:00,43.3,28.2,29.84,SE,135,2.0,8.1,55,0.00,,,0.00,WUHU21623XXSP,2013-01-10 02:55:00,
2013-01-09 19:00:00,43.0,28.3,29.84,ESE,112,5.1,5.1,56,0.00,,,0.00,WUHU21623XXSP,2013-01-10 03:00:00,
2013-01-09 19:05:00,42.6,28.4,29.84,SE,135,4.9,5.1,57,0.00,,,0.00,WUHU21623XXSP,2013-01-10 03:05:00,
2013-01-09 19:10:00,42.4,28.6,29.84,SE,135,13.0,13.0,58,0.00,,,0.00,WUHU21623XXSP,2013-01-10 03:10:00,
2013-01-09 19:15:00,42.1,28.3,29.84,SE,135,13.4,13.4,58,0.00,,,0.00,WUHU21623XXSP,2013-01-10 03:15:00,
2013-01-09 19:20:00,41.7,28.4,29.84,SSE,157,10.5,13.4,59,0.00,,,0.00,WUHU21623XXSP,2013-01-10 03:20:00,
2013-01-09 19:25:00,41.5,28.3,29.84,ESE,112,5.1,10.5,59,0.00,,,0.00,WUHU21623XXSP,2013-01-10 03:25:00,
2013-01-09 19:32:00,41.2,28.4,29.83,ESE,112,3.1,6.0,60,0.00,,,0.00,WUHU21623XXSP,2013-01-10 03:32:00,
2013-01-09 19:37:00,41.0,28.6,29.83,South,180,12.8,12.8,61,0.00,,,0.00,WUHU21623XXSP,2013-01-10 03:37:00,
2013-01-09 19:47:00,40.5,28.8,29.82,SSW,202,1.8,8.9,63,0.00,,,0.00,WUHU21623XXSP,2013-01-10 03:47:00,
2013-01-09 19:52:00,40.3,28.6,29.82,SSW,202,1.8,1.8,63,0.00,,,0.00,WUHU21623XXSP,2013-01-10 03:52:00,
2013-01-09 19:57:00,39.9,28.7,29.82,SSE,157,4.5,4.5,64,0.00,,,0.00,WUHU21623XXSP,2013-01-10 03:57:00,
2013-01-09 20:02:00,39.7,28.7,29.81,East,90,0.0,13.0,64,0.00,,,0.00,WUHU21623XXSP,2013-01-10 04:02:00,
2013-01-09 20:07:00,39.7,28.5,29.82,ESE,112,3.1,13.0,64,0.00,,,0.00,WUHU21623XXSP,2013-01-10 04:07:00,
2013-01-09 20:12:00,39.6,28.3,29.81,ESE,112,3.1,3.1,64,0.00,,,0.00,WUHU21623XXSP,2013-01-10 04:12:00,
2013-01-09 20:17:00,39.0,28.1,29.81,East,90,0.9,3.1,65,0.00,,,0.00,WUHU21623XXSP,2013-01-10 04:17:00,
2013-01-09 20:23:00,38.8,28.0,29.81,SSE,157,2.5,2.5,65,0.00,,,0.00,WUHU21623XXSP,2013-01-10 04:23:00,
2013-01-09 20:29:00,38.7,27.8,29.81,SSE,157,0.0,2.5,65,0.00,,,0.00,WUHU21623XXSP,2013-01-10 04:29:00,
2013-01-09 20:34:00,38.5,28.0,29.81,South,180,0.0,0.0,66,0.00,,,0.00,WUHU21623XXSP,2013-01-10 04:34:00,
2013-01-09 20:40:00,38.1,27.7,29.80,South,180,0.0,4.9,66,0.00,,,0.00,WUHU21623XXSP,2013-01-10 04:40:00,
2013-01-09 20:45:00,38.1,27.7,29.80,SE,135,4.5,4.9,66,0.00,,,0.00,WUHU21623XXSP,2013-01-10 04:45:00,
2013-01-09 20:50:00,37.9,27.9,29.79,South,180,0.0,4.5,67,0.00,,,0.00,WUHU21623XXSP,2013-01-10 04:50:00,
2013-01-09 20:55:00,37.9,27.9,29.79,SSE,157,0.0,0.0,67,0.00,,,0.00,WUHU21623XXSP,2013-01-10 04:55:00,
2013-01-09 21:00:00,37.8,27.8,29.78,SSE,157,4.0,4.0,67,0.00,,,0.00,WUHU21623XXSP,2013-01-10 05:00:00,
2013-01-09 21:01:00,37.8,27.8,29.78,SSE,157,4.0,4.0,67,0.00,,,0.00,WUHU21623XXSP,2013-01-10 05:01:00,
2013-01-09 21:03:00,37.8,27.8,29.78,SSE,157,4.0,4.0,67,0.00,,,0.00,WUHU21623XXSP,2013-01-10 05:03:00,
2013-01-09 21:08:00,37.6,27.6,29.78,SSE,157,0.0,4.0,67,0.00,,,0.00,WUHU21623XXSP,2013-01-10 05:08:00,
2013-01-09 21:13:00,37.6,27.6,29.79,SSW,202,0.0,0.0,67,0.00,,,0.00,WUHU21623XXSP,2013-01-10 05:13:00,
2013-01-09 21:19:00,37.4,27.4,29.78,SSW,202,2.2,2.2,67,0.00,,,0.00,WUHU21623XXSP,2013-01-10 05:19:00,
2013-01-09 21:34:00,37.2,27.6,29.80,South,180,2.5,2.5,68,0.00,,,0.00,WUHU21623XXSP,2013-01-10 05:34:00,
2013-01-09 21:42:00,37.0,27.8,29.80,SE,135,6.0,6.0,69,0.00,,,0.00,WUHU21623XXSP,2013-01-10 05:42:00,
2013-01-09 21:47:00,37.0,27.8,29.80,South,180,15.7,15.7,69,0.00,,,0.00,WUHU21623XXSP,2013-01-10 05:47:00,
2013-01-09 21:59:00,36.3,27.5,29.81,South,180,11.4,11.4,70,0.00,,,0.00,WUHU21623XXSP,2013-01-10 05:59:00,
2013-01-09 22:04:00,35.8,27.5,29.82,SSE,157,0.0,11.4,71,0.00,,,0.00,WUHU21623XXSP,2013-01-10 06:04:00,
2013-01-09 22:10:00,35.2,26.7,29.82,SW,225,5.1,5.1,71,0.00,,,0.00,WUHU21623XXSP,2013-01-10 06:10:00,
2013-01-09 22:16:00,34.5,26.0,29.83,South,180,0.0,5.1,71,0.00,,,0.00,WUHU21623XXSP,2013-01-10 06:16:00,
2013-01-09 22:21:00,34.3,25.8,29.83,SW,225,0.0,0.0,71,0.00,,,0.00,WUHU21623XXSP,2013-01-10 06:21:00,
2013-01-09 22:27:00,34.0,25.5,29.83,West,270,0.0,0.0,71,0.00,,,0.00,WUHU21623XXSP,2013-01-10 06:27:00,
2013-01-09 22:32:00,33.6,25.5,29.84,South,180,5.4,5.4,72,0.00,,,0.00,WUHU21623XXSP,2013-01-10 06:32:00,
2013-01-09 22:37:00,33.4,25.5,29.84,SSE,157,3.6,5.4,72,0.00,,,0.00,WUHU21623XXSP,2013-01-10 06:37:00,
2013-01-09 22:42:00,33.1,25.0,29.83,SE,135,4.3,4.3,72,0.00,,,0.00,WUHU21623XXSP,2013-01-10 06:42:00,
2013-01-09 22:49:00,32.4,24.3,29.84,South,180,8.3,8.3,72,0.00,,,0.00,WUHU21623XXSP,2013-01-10 06:49:00,
2013-01-09 22:57:00,31.8,23.5,29.84,SSE,157,5.4,8.3,71,0.00,,,0.00,WUHU21623XXSP,2013-01-10 06:57:00,
2013-01-09 23:02:00,31.6,23.0,29.84,ESE,112,5.4,5.4,70,0.00,,,0.00,WUHU21623XXSP,2013-01-10 07:02:00,
2013-01-09 23:07:00,31.3,22.3,29.84,SSE,157,6.0,6.0,69,0.00,,,0.00,WUHU21623XXSP,2013-01-10 07:07:00,
2013-01-09 23:12:00,31.3,22.3,29.84,SE,135,5.8,6.0,69,0.00,,,0.00,WUHU21623XXSP,2013-01-10 07:12:00,
2013-01-09 23:17:00,31.1,21.7,29.86,SSE,157,13.4,13.4,68,0.00,,,0.00,WUHU21623XXSP,2013-01-10 07:17:00,
2013-01-09 23:22:00,30.9,21.6,29.85,South,180,3.8,13.4,68,0.00,,,0.00,WUHU21623XXSP,2013-01-10 07:22:00,
2013-01-09 23:27:00,30.9,21.2,29.86,ESE,112,3.1,3.8,67,0.00,,,0.00,WUHU21623XXSP,2013-01-10 07:27:00,
2013-01-09 23:32:00,30.7,21.0,29.85,East,90,3.1,3.1,67,0.00,,,0.00,WUHU21623XXSP,2013-01-10 07:32:00,
2013-01-09 23:37:00,30.7,20.7,29.84,ESE,112,2.5,3.1,66,0.00,,,0.00,WUHU21623XXSP,2013-01-10 07:37:00,
2013-01-09 23:42:00,30.6,20.5,29.85,SSE,157,4.5,4.5,66,0.00,,,0.00,WUHU21623XXSP,2013-01-10 07:42:00,
2013-01-09 23:47:00,30.4,20.3,29.85,South,180,3.8,4.5,66,0.00,,,0.00,WUHU21623XXSP,2013-01-10 07:47:00,
2013-01-09 23:55:00,30.2,20.1,29.85,SSE,157,8.3,8.3,66,0.00,,,0.00,WUHU21623XXSP,2013-01-10 07:55:00,